Fort Lewis, WA

9:55 PM PST on December 12, 2017 (GMT -0800)
Gray Army Air Field

Weather History for KGRF - April, 2013

Change the Weather History Date:

Saturday, April 13, 2013

  Actual Average Record
Temperature  
Mean Temperature 42 °F -  
Max Temperature 47 °F 56 °F 69 °F (2014)
Min Temperature 37 °F 37 °F 32 °F (2005)
Degree Days  
Heating Degree Days 22    
Moisture  
Dew Point 39 °F    
Average Humidity 86    
Maximum Humidity 95    
Minimum Humidity 71    
Precipitation  
Precipitation 0.22 in - - ()
Sea Level Pressure  
Sea Level Pressure 29.93 in    
Wind  
Wind Speed 12 mph (South)    
Max Wind Speed 20 mph    
Max Gust Speed 31 mph    
Visibility 9 miles    
Events Rain    
Averages and records for this station are not official NWS values.
T = Trace of Precipitation, MM = Missing Value Source: NWS Daily Summary

Daily Weather History Graph

Daily Weather History Graph

Search for Another Location

Airport or City:

Trip Planner

Search our weather history database for the weather conditions in past years. The results will help you decide how hot, cold, wet, or windy it might be!

Date:

Astronomy

Apr. 13, 2013 Rise Set
Actual Time 6:25 AM PDT 7:56 PM PDT
Civil Twilight 5:53 AM PDT 8:28 PM PDT
Nautical Twilight 5:15 AM PDT 9:07 PM PDT
Astronomical Twilight 4:33 AM PDT 9:49 PM PDT
Moon 8:10 AM PDT 11:37 PM PDT
Length of Visible Light 14h 35m
Length of Day
13h 31m
Waxing Crescent, 11% of the Moon is Illuminated
Apr 13
Waxing Crescent
Apr 18
First Quarter
Apr 25
Full
May 2
Last Quarter
May 9
New

Hourly Weather History & Observations

Time (PDT) Temp. Windchill Dew Point Humidity Pressure Visibility Wind Dir Wind Speed Gust Speed Precip Events Conditions
12:23 AM 41.0 °F 36.4 °F 35.6 °F 81% 29.83 in 10.0 mi South 6.9 mph - N/A   Overcast
12:27 AM 41.0 °F 35.8 °F 35.6 °F 81% 29.83 in 10.0 mi South 8.1 mph - N/A   Overcast
12:32 AM 41.0 °F 34.3 °F 35.6 °F 81% 29.83 in 10.0 mi SSW 11.5 mph - N/A   Light Drizzle
12:44 AM 41.0 °F 33.9 °F 35.6 °F 81% 29.84 in 10.0 mi SSW 12.7 mph - N/A   Overcast
12:58 AM 40.8 °F 34.5 °F 35.8 °F 82% 29.86 in 10.0 mi South 10.4 mph 21.9 mph 0.01 in   Overcast
1:03 AM 41.0 °F 33.9 °F 35.6 °F 81% 29.84 in 10.0 mi South 12.7 mph - N/A   Overcast
1:08 AM 41.0 °F 34.3 °F 35.6 °F 81% 29.84 in 10.0 mi South 11.5 mph - N/A   Overcast
1:18 AM 41.0 °F 33.9 °F 35.6 °F 81% 29.85 in 10.0 mi South 12.7 mph 20.7 mph N/A Rain Light Rain
1:28 AM 39.2 °F 32.0 °F 35.6 °F 87% 29.85 in 10.0 mi South 11.5 mph - N/A   Overcast
1:58 AM 40.1 °F 31.6 °F 34.2 °F 79% 29.87 in 10.0 mi South 16.1 mph 23.0 mph 0.00 in   Overcast
2:13 AM 39.2 °F 31.2 °F 32.0 °F 75% 29.85 in 10.0 mi SSW 13.8 mph 25.3 mph N/A   Mostly Cloudy
2:58 AM 39.0 °F 29.9 °F 30.4 °F 71% 29.86 in 10.0 mi SSW 17.3 mph 24.2 mph N/A   Clear
8:15 AM 39.2 °F 30.8 °F 33.8 °F 81% 29.94 in 10.0 mi South 15.0 mph - N/A   Mostly Cloudy
8:25 AM 39.2 °F 30.8 °F 35.6 °F 87% 29.93 in 10.0 mi South 15.0 mph 20.7 mph N/A   Overcast
8:50 AM 39.2 °F 30.8 °F 35.6 °F 87% 29.93 in 10.0 mi South 15.0 mph 20.7 mph N/A   Overcast
9:55 AM 41.0 °F 33.5 °F 35.6 °F 81% 29.94 in 10.0 mi South 13.8 mph - N/A   Overcast
10:10 AM 41.0 °F 31.9 °F 37.4 °F 87% 29.93 in 10.0 mi South 19.6 mph 27.6 mph N/A Rain Light Rain
10:20 AM 41.0 °F 33.5 °F 37.4 °F 87% 29.93 in 10.0 mi South 13.8 mph 24.2 mph N/A Rain Light Rain
10:24 AM 41.0 °F 33.1 °F 37.4 °F 87% 29.93 in 10.0 mi South 15.0 mph 24.2 mph N/A   Overcast
10:55 AM 42.3 °F 35.1 °F 37.8 °F 84% 29.95 in 10.0 mi South 13.8 mph 25.3 mph N/A Rain Light Rain
11:01 AM 42.8 °F 35.4 °F 37.4 °F 81% 29.93 in 10.0 mi South 15.0 mph 25.3 mph N/A Rain Light Rain
11:19 AM 42.8 °F 35.8 °F 39.2 °F 87% 29.94 in 10.0 mi South 13.8 mph 21.9 mph N/A   Overcast
11:32 AM 42.8 °F 35.1 °F 39.2 °F 87% 29.94 in 10.0 mi South 16.1 mph 24.2 mph N/A   Overcast
11:48 AM 42.8 °F 36.6 °F 39.2 °F 87% 29.94 in 10.0 mi South 11.5 mph - N/A Rain Light Rain
11:57 AM 42.8 °F 35.8 °F 39.2 °F 87% 29.94 in 10.0 mi South 13.8 mph 25.3 mph N/A   Overcast
11:58 AM 42.8 °F 36.2 °F 39.2 °F 87% 29.96 in 10.0 mi South 12.7 mph 25.3 mph 0.01 in   Overcast
12:04 PM 42.8 °F 35.1 °F 39.2 °F 87% 29.94 in 10.0 mi South 16.1 mph - N/A Rain Light Rain
12:28 PM 42.8 °F 36.2 °F 39.2 °F 87% 29.95 in 6.0 mi South 12.7 mph 20.7 mph N/A Rain Light Rain
12:38 PM 42.8 °F 36.6 °F 41.0 °F 93% 29.94 in 10.0 mi SSE 11.5 mph - N/A   Light Drizzle
12:41 PM 42.8 °F 37.0 °F 41.0 °F 93% 29.94 in 10.0 mi SSE 10.4 mph - N/A   Overcast
12:51 PM 44.6 °F 38.4 °F 42.8 °F 93% 29.94 in 10.0 mi SSE 12.7 mph - N/A   Overcast
12:58 PM 44.2 °F 37.3 °F 41.9 °F 91% 29.96 in 10.0 mi South 15.0 mph 19.6 mph 0.06 in   Overcast
1:06 PM 42.8 °F 35.4 °F 41.0 °F 93% 29.94 in 10.0 mi South 15.0 mph - N/A Rain Light Rain
1:31 PM 44.6 °F 38.1 °F 41.0 °F 87% 29.94 in 10.0 mi SSE 13.8 mph 19.6 mph N/A Rain Light Rain
1:33 PM 44.6 °F 38.4 °F 42.8 °F 93% 29.94 in 10.0 mi South 12.7 mph 19.6 mph N/A   Overcast
1:48 PM 44.6 °F 38.8 °F 41.0 °F 87% 29.94 in 10.0 mi South 11.5 mph 19.6 mph N/A   Mostly Cloudy
1:58 PM 45.1 °F 39.5 °F 41.0 °F 85% 29.96 in 10.0 mi South 11.5 mph - 0.02 in   Mostly Cloudy
2:58 PM 46.8 °F - 40.3 °F 78% 29.96 in 10.0 mi South 15.0 mph 20.7 mph N/A   Mostly Cloudy
3:03 PM 46.4 °F 40.7 °F 39.2 °F 76% 29.95 in 10.0 mi SSW 12.7 mph 27.6 mph N/A   Mostly Cloudy
3:04 PM 46.4 °F 41.5 °F 39.2 °F 76% 29.95 in 9.0 mi SW 10.4 mph 27.6 mph N/A Rain Light Rain
3:06 PM 44.6 °F 37.4 °F 41.0 °F 87% 29.95 in 5.0 mi SW 16.1 mph 27.6 mph N/A Rain Light Rain
3:11 PM 44.6 °F 39.2 °F 39.2 °F 81% 29.95 in 2.5 mi SW 10.4 mph 23.0 mph N/A Rain Light Rain
3:16 PM 42.8 °F 37.0 °F 39.2 °F 87% 29.95 in 3.0 mi SSW 10.4 mph 23.0 mph N/A   Overcast
3:22 PM 44.6 °F 40.2 °F 42.8 °F 93% 29.94 in 10.0 mi South 8.1 mph - N/A   Overcast
3:27 PM 46.4 °F 41.1 °F 42.8 °F 87% 29.94 in 10.0 mi South 11.5 mph - N/A   Mostly Cloudy
3:47 PM 46.4 °F 41.1 °F 41.0 °F 81% 29.95 in 8.0 mi South 11.5 mph 31.1 mph N/A   Mostly Cloudy
3:54 PM 44.6 °F 37.8 °F 41.0 °F 87% 29.95 in 4.0 mi SW 15.0 mph 31.1 mph N/A Rain Light Rain
3:55 PM 44.6 °F 38.4 °F 41.0 °F 87% 29.95 in 4.0 mi SSW 12.7 mph 21.9 mph N/A   Haze
3:56 PM 44.6 °F 38.4 °F 41.0 °F 87% 29.95 in 4.0 mi SSW 12.7 mph 21.9 mph N/A Rain Light Rain
3:58 PM 44.6 °F 38.1 °F 41.0 °F 87% 29.97 in 4.0 mi SSW 13.8 mph 21.9 mph 0.08 in Rain Light Rain
4:07 PM 46.4 °F 41.1 °F 42.8 °F 87% 29.95 in 10.0 mi SSW 11.5 mph - N/A   Mostly Cloudy
4:12 PM 46.4 °F 40.7 °F 42.8 °F 87% 29.94 in 10.0 mi South 12.7 mph - N/A   Mostly Cloudy
4:50 PM 44.6 °F 38.4 °F 41.0 °F 87% 29.95 in 10.0 mi SW 12.7 mph - N/A   Light Drizzle
4:55 PM 44.6 °F 38.8 °F 41.0 °F 87% 29.95 in 10.0 mi SW 11.5 mph 19.6 mph N/A Rain Light Rain
4:58 PM 45.1 °F 39.1 °F 40.5 °F 84% 29.97 in 9.0 mi SW 12.7 mph - 0.01 in Rain Light Rain
5:17 PM 44.6 °F 38.4 °F 41.0 °F 87% 29.95 in 10.0 mi SW 12.7 mph 24.2 mph N/A   Mostly Cloudy
5:22 PM 44.6 °F 39.2 °F 41.0 °F 87% 29.95 in 10.0 mi SSW 10.4 mph 20.7 mph N/A   Mostly Cloudy
5:44 PM 44.6 °F 39.2 °F 41.0 °F 87% 29.95 in 10.0 mi South 10.4 mph - N/A Rain Light Rain
5:49 PM 44.6 °F 39.2 °F 41.0 °F 87% 29.95 in 10.0 mi South 10.4 mph - N/A   Light Drizzle
5:55 PM 46.4 °F 39.5 °F 42.8 °F 87% 29.95 in 10.0 mi SSW 17.3 mph - N/A   Overcast
5:58 PM 45.5 °F 38.9 °F 42.6 °F 90% 29.97 in 10.0 mi SSW 15.0 mph - 0.03 in   Mostly Cloudy
6:08 PM 46.4 °F 40.7 °F 41.0 °F 81% 29.95 in 10.0 mi SSW 12.7 mph - N/A   Scattered Clouds
6:58 PM 44.6 °F 39.2 °F 39.4 °F 82% 29.97 in 10.0 mi South 10.4 mph - N/A   Partly Cloudy
7:18 PM 44.6 °F 39.7 °F 41.0 °F 87% 29.96 in 10.0 mi South 9.2 mph - N/A   Mostly Cloudy
7:58 PM 43.9 °F 37.5 °F 40.3 °F 87% 29.98 in 10.0 mi SSW 12.7 mph - N/A   Mostly Cloudy
8:23 PM 42.8 °F 37.5 °F 39.2 °F 87% 29.97 in 10.0 mi South 9.2 mph - N/A   Scattered Clouds
8:58 PM 42.1 °F 37.1 °F 39.6 °F 91% 30.00 in 10.0 mi SSE 8.1 mph - N/A   Mostly Cloudy
9:08 PM 42.8 °F 37.0 °F 39.2 °F 87% 29.98 in 10.0 mi South 10.4 mph - N/A   Scattered Clouds
9:58 PM 41.0 °F 35.2 °F 38.8 °F 92% 30.01 in 10.0 mi SSE 9.2 mph - N/A   Partly Cloudy
10:58 PM 40.1 °F 34.1 °F 38.1 °F 93% 30.00 in 10.0 mi South 9.2 mph - N/A   Clear
11:58 PM 37.9 °F 32.7 °F 36.5 °F 95% 30.02 in 10.0 mi SSE 6.9 mph - N/A   Clear